TimeEST,TemperatureF,Dew PointF,Humidity,Sea Level PressureIn,VisibilityMPH,Wind Direction,Wind SpeedMPH,Gust SpeedMPH,PrecipitationIn,Events,Conditions,WindDirDegrees,DateUTC
12:15 AM,40.1,29.3,65,30.05,10.0,SW,5.8,-,N/A,,Clear,220,2013-12-01 05:15:00
12:35 AM,40.5,30.0,66,30.05,10.0,SW,4.6,-,N/A,,Clear,220,2013-12-01 05:35:00
12:54 AM,40.1,30.9,70,30.05,10.0,SW,4.6,-,N/A,,Clear,220,2013-12-01 05:54:00
1:15 AM,41.0,32.0,70,30.04,10.0,SW,6.9,-,N/A,,Clear,230,2013-12-01 06:15:00
1:35 AM,40.8,33.3,74,30.03,10.0,SW,6.9,-,N/A,,Clear,230,2013-12-01 06:35:00
1:55 AM,40.3,34.2,79,30.03,10.0,SW,5.8,-,N/A,,Clear,230,2013-12-01 06:55:00
2:15 AM,41.0,34.9,79,30.03,10.0,WSW,6.9,-,N/A,,Clear,240,2013-12-01 07:15:00
2:35 AM,40.8,35.2,80,30.03,10.0,WSW,3.5,-,N/A,,Clear,250,2013-12-01 07:35:00
2:55 AM,40.5,35.2,82,30.03,10.0,WSW,4.6,-,N/A,,Clear,240,2013-12-01 07:55:00
3:15 AM,39.9,35.1,83,30.03,10.0,Calm,Calm,-,N/A,,Clear,0,2013-12-01 08:15:00
3:35 AM,38.3,33.6,83,30.03,10.0,Calm,Calm,-,N/A,,Scattered Clouds,0,2013-12-01 08:35:00
3:55 AM,32.9,31.5,94,30.02,5.0,Calm,Calm,-,N/A,,Mostly Cloudy,0,2013-12-01 08:55:00
4:15 AM,32.0,30.7,95,30.02,7.0,Calm,Calm,-,N/A,,Overcast,0,2013-12-01 09:15:00
4:35 AM,32.0,30.9,96,30.02,10.0,Calm,Calm,-,N/A,,Overcast,0,2013-12-01 09:35:00
4:55 AM,32.0,30.7,95,30.02,10.0,Calm,Calm,-,N/A,,Overcast,0,2013-12-01 09:55:00
5:15 AM,32.0,30.9,96,30.02,7.0,Calm,Calm,-,N/A,,Overcast,0,2013-12-01 10:15:00
5:35 AM,32.9,31.1,93,30.02,7.0,Calm,Calm,-,N/A,,Overcast,0,2013-12-01 10:35:00
5:55 AM,32.9,31.6,95,30.03,7.0,Calm,Calm,-,N/A,,Overcast,0,2013-12-01 10:55:00
6:15 AM,32.7,31.5,95,30.03,7.0,Calm,Calm,-,N/A,,Overcast,0,2013-12-01 11:15:00
6:35 AM,32.5,31.5,96,30.03,7.0,Calm,Calm,-,N/A,,Overcast,0,2013-12-01 11:35:00
6:55 AM,32.5,31.6,96,30.04,7.0,Calm,Calm,-,N/A,,Overcast,0,2013-12-01 11:55:00
7:15 AM,32.4,31.6,97,30.04,7.0,Calm,Calm,-,N/A,,Overcast,0,2013-12-01 12:15:00
7:35 AM,32.5,31.8,97,30.04,7.0,Calm,Calm,-,N/A,,Scattered Clouds,0,2013-12-01 12:35:00
7:55 AM,32.0,31.1,96,30.04,5.0,Calm,Calm,-,N/A,,Scattered Clouds,0,2013-12-01 12:55:00
8:15 AM,35.1,33.8,95,30.04,5.0,NNE,10.4,-,N/A,,Mostly Cloudy,20,2013-12-01 13:15:00
8:34 AM,36.5,32.2,84,30.06,7.0,NNE,5.8,-,N/A,,Mostly Cloudy,30,2013-12-01 13:34:00
8:55 AM,36.1,32.0,85,30.06,7.0,NNE,4.6,-,N/A,,Overcast,20,2013-12-01 13:55:00
9:15 AM,36.5,32.0,84,30.07,7.0,NNE,4.6,-,N/A,,Mostly Cloudy,20,2013-12-01 14:15:00
9:35 AM,36.7,31.6,82,30.07,7.0,NNE,5.8,-,N/A,,Scattered Clouds,30,2013-12-01 14:35:00
9:55 AM,36.7,31.3,81,30.07,7.0,NNE,5.8,-,N/A,,Clear,20,2013-12-01 14:55:00
10:14 AM,36.7,31.1,80,30.08,7.0,NNE,4.6,-,N/A,,Scattered Clouds,30,2013-12-01 15:14:00
10:35 AM,37.4,30.7,77,30.08,7.0,NNE,4.6,-,N/A,,Scattered Clouds,20,2013-12-01 15:35:00
10:55 AM,37.9,30.7,75,30.09,7.0,NNE,4.6,-,N/A,,Scattered Clouds,20,2013-12-01 15:55:00
11:15 AM,39.4,30.4,70,30.09,7.0,NNE,4.6,-,N/A,,Mostly Cloudy,30,2013-12-01 16:15:00
11:35 AM,38.8,30.0,71,30.08,7.0,NNE,6.9,-,N/A,,Overcast,20,2013-12-01 16:35:00
11:55 AM,39.6,29.5,67,30.07,10.0,NNE,6.9,-,N/A,,Scattered Clouds,20,2013-12-01 16:55:00
12:15 PM,40.1,28.6,63,30.06,7.0,NNE,5.8,-,N/A,,Clear,30,2013-12-01 17:15:00
12:35 PM,41.0,27.7,59,30.05,10.0,North,8.1,-,N/A,,Scattered Clouds,360,2013-12-01 17:35:00
12:55 PM,41.0,26.6,57,30.05,10.0,NNE,8.1,-,N/A,,Clear,30,2013-12-01 17:55:00
1:15 PM,41.2,26.4,56,30.04,10.0,North,4.6,-,N/A,,Clear,10,2013-12-01 18:15:00
1:35 PM,41.7,26.2,54,30.04,10.0,North,8.1,-,N/A,,Clear,350,2013-12-01 18:35:00
1:55 PM,41.7,26.2,54,30.04,10.0,NW,10.4,17.3,N/A,,Clear,320,2013-12-01 18:55:00
2:15 PM,41.7,27.1,56,30.03,10.0,NNW,6.9,-,N/A,,Clear,330,2013-12-01 19:15:00
2:35 PM,41.9,27.5,57,30.03,10.0,NW,9.2,-,N/A,,Clear,320,2013-12-01 19:35:00
2:55 PM,41.0,28.4,61,30.03,10.0,North,6.9,-,N/A,,Clear,350,2013-12-01 19:55:00
3:15 PM,41.4,29.1,62,30.02,10.0,NW,6.9,-,N/A,,Scattered Clouds,310,2013-12-01 20:15:00
3:35 PM,41.0,29.3,63,30.02,10.0,NNW,6.9,-,N/A,,Mostly Cloudy,340,2013-12-01 20:35:00
3:55 PM,40.3,30.2,67,30.02,10.0,North,6.9,-,N/A,,Scattered Clouds,350,2013-12-01 20:55:00
4:15 PM,40.1,31.1,70,30.02,10.0,NNW,4.6,-,N/A,,Clear,340,2013-12-01 21:15:00
4:35 PM,39.2,31.1,73,30.02,10.0,NNW,3.5,-,N/A,,Clear,330,2013-12-01 21:35:00
4:55 PM,38.7,30.9,74,30.02,10.0,NW,3.5,-,N/A,,Clear,310,2013-12-01 21:55:00
5:15 PM,38.3,30.9,75,30.03,10.0,Calm,Calm,-,N/A,,Scattered Clouds,0,2013-12-01 22:15:00
5:34 PM,37.2,30.2,76,30.02,10.0,Calm,Calm,-,N/A,,Scattered Clouds,0,2013-12-01 22:34:00
5:55 PM,34.0,29.8,85,30.02,10.0,Calm,Calm,-,N/A,,Clear,0,2013-12-01 22:55:00
6:15 PM,32.0,28.8,88,30.03,7.0,Calm,Calm,-,N/A,,Scattered Clouds,0,2013-12-01 23:15:00
6:34 PM,32.0,29.1,89,30.02,7.0,Calm,Calm,-,N/A,,Mostly Cloudy,0,2013-12-01 23:34:00
6:55 PM,32.0,28.9,88,30.03,7.0,Calm,Calm,-,N/A,,Overcast,0,2013-12-01 23:55:00
7:15 PM,33.3,29.3,85,30.02,10.0,Calm,Calm,-,N/A,,Overcast,0,2013-12-02 00:15:00
7:34 PM,34.7,29.5,81,30.02,10.0,Calm,Calm,-,N/A,,Mostly Cloudy,0,2013-12-02 00:34:00
7:55 PM,31.6,28.0,87,30.02,7.0,Calm,Calm,-,N/A,,Scattered Clouds,0,2013-12-02 00:55:00
8:15 PM,30.9,28.2,90,30.02,7.0,Calm,Calm,-,N/A,,Mostly Cloudy,0,2013-12-02 01:15:00
8:35 PM,30.6,28.0,90,30.02,7.0,Calm,Calm,-,N/A,,Overcast,0,2013-12-02 01:35:00
8:55 PM,30.9,28.9,92,30.02,7.0,Calm,Calm,-,N/A,,Overcast,0,2013-12-02 01:55:00
9:15 PM,30.6,28.6,92,30.02,7.0,Calm,Calm,-,N/A,,Overcast,0,2013-12-02 02:15:00
9:35 PM,30.9,29.1,93,30.02,7.0,Calm,Calm,-,N/A,,Overcast,0,2013-12-02 02:35:00
9:55 PM,31.1,28.6,90,30.02,7.0,Calm,Calm,-,N/A,,Overcast,0,2013-12-02 02:55:00
10:15 PM,30.4,28.2,92,30.02,5.0,Calm,Calm,-,N/A,,Mostly Cloudy,0,2013-12-02 03:15:00
10:35 PM,29.8,28.2,94,30.01,5.0,Calm,Calm,-,N/A,,Overcast,0,2013-12-02 03:35:00
10:55 PM,29.5,27.5,92,30.00,5.0,Calm,Calm,-,N/A,,Overcast,0,2013-12-02 03:55:00
11:15 PM,30.0,28.2,93,30.00,7.0,Calm,Calm,-,N/A,,Overcast,0,2013-12-02 04:15:00
11:35 PM,29.1,27.0,92,30.00,7.0,Calm,Calm,-,N/A,,Overcast,0,2013-12-02 04:35:00
11:55 PM,29.3,27.5,93,29.99,7.0,Calm,Calm,-,N/A,,Overcast,0,2013-12-02 04:55:00